Starlink 6188

operational
NORAD ID: 56376 Int'l Des: 2023-061 Owner: SPXS Country: US Constellation: starlink
LEOCIRCULAR

Über Starlink 6188

Beschreibung wird geladen...

Live-Position

3D-Globus wird geladen...

Nächste Überflüge

Höhenverlauf

Altitude vs Time

uPlot chart will show altitude changes over time

Zweizeiliger Elementsatz

1 56376U 23061C 25259.16831453 .00000156 00000-0 26627-4 0 9992
2 56376 43.0037 65.6338 0001315 270.9292 89.1399 15.02534089130503
Epoch: 16. Sept. 2025 • Age: 12 hours

Aktueller Status

Höhe 563.2 km
Geschwindigkeit 7.59 km/s
Subsatellitenpunkt 43.16°N, 75.86°W
Startdatum 4. Mai 2023
Alter 2.3 years
Typ internet

Technische Details

Klassifizierung Payload
Masse 305.00 kg
Trockenmasse 290.00 kg
Gesamtmasse 305.00 kg
Länge 0.20 m
Durchmesser 2.80 m
Spannweite 9.00 m
Form Box + pan
Hersteller SPXS
Bus-Typ Starlink
Phasenstatus In Orbit
Besitzer/Staat SPXS/US

Große Konstellationen

Loading constellations...